Weather History for HEGN - March, 2013

Change the Weather History Date:

Saturday, March 9, 2013

  Actual Average Record
Temperature  
Mean Temperature 74 °F -  
Max Temperature 84 °F 77 °F 94 °F (2015)
Min Temperature 64 °F 60 °F 53 °F (2004)
Cooling Degree Days 9    
Growing Degree Days 24 (Base 50)    
Moisture  
Dew Point 39 °F    
Average Humidity 28    
Maximum Humidity 60    
Minimum Humidity 11    
Precipitation  
Precipitation 0.00 in - - ()
Sea Level Pressure  
Sea Level Pressure 29.87 in    
Wind  
Wind Speed 16 mph ()    
Max Wind Speed 25 mph    
Max Gust Speed -    
Visibility 3.8 miles    
Events      
Averages and records for this station are not official NWS values.
T = Trace of Precipitation, MM = Missing Value Source: Averaged Metar Reports

Daily Weather History Graph

Daily Weather History Graph

Search for Another Location

Airport or City:

Trip Planner

Search our weather history database for the weather conditions in past years. The results will help you decide how hot, cold, wet, or windy it might be!

Date:

Astronomy

Mar. 09, 2013 Rise Set
Actual Time 6:00 AM EET 5:50 PM EET
Civil Twilight 5:37 AM EET 6:13 PM EET
Nautical Twilight 5:10 AM EET 6:40 PM EET
Astronomical Twilight 4:43 AM EET 7:07 PM EET
Moon 4:00 AM EET (3/9) 3:38 PM EET (3/9)
Length of Visible Light 12h 36m
Length of Day
11h 49m
Waning Crescent, 7% of the Moon is Illuminated
Mar 9
Waning Crescent
Mar 11
New
Mar 19
First Quarter
Mar 27
Full
Apr 3
Last Quarter

Hourly Weather History & Observations

Time (EET) Temp. Dew Point Humidity Pressure Visibility Wind Dir Wind Speed Gust Speed Precip Events Conditions
12:00 AM 69.8 °F 55.4 °F 60% 29.83 in - WNW 11.5 mph - N/A   Clear
1:00 AM 71.6 °F 32.0 °F 23% 29.80 in 3.7 mi WNW 23.0 mph - N/A   Unknown
2:00 AM 71 °F 28 °F 11% 29.82 in 4 mi WNW 19.6 mph - -   Blowing Sand
2:00 AM 71.6 °F 28.4 °F 20% 29.80 in 3.7 mi WNW 19.6 mph - N/A   Unknown
3:00 AM 68.0 °F 28.4 °F 23% 29.80 in 3.7 mi North 15.0 mph - N/A   Unknown
4:00 AM 68.0 °F 28.4 °F 23% 29.80 in 3.7 mi NW 16.1 mph - N/A   Unknown
5:00 AM 68.0 °F 30.2 °F 24% 29.83 in 3.7 mi NNW 16.1 mph - N/A   Unknown
6:00 AM 66.2 °F 37.4 °F 35% 29.86 in 3.7 mi NNW 15.0 mph - N/A   Unknown
7:00 AM 66.2 °F 46.4 °F 49% 29.86 in 3.7 mi North 16.1 mph - N/A   Unknown
8:00 AM 72 °F 42 °F 23% 29.91 in 4 mi North 17.3 mph - -   Blowing Sand
8:00 AM 71.6 °F 42.8 °F 35% 29.89 in 3.7 mi North 17.3 mph - N/A   Unknown
9:00 AM 75.2 °F 41.0 °F 29% 29.92 in 3.7 mi NNW 19.6 mph - N/A   Unknown
10:00 AM 77.0 °F 44.6 °F 32% 29.92 in 3.7 mi North 16.1 mph - N/A   Unknown
11:00 AM 80.6 °F 50.0 °F 34% 29.92 in 3.7 mi North 21.9 mph - N/A   Unknown
12:00 PM 82.4 °F 50.0 °F 32% 29.89 in 3.7 mi North 23.0 mph - N/A   Unknown
1:00 PM 82.4 °F 50.0 °F 32% 29.86 in 3.7 mi North 21.9 mph - N/A   Unknown
2:00 PM 83 °F 47 °F 18% 29.85 in 4 mi North 24.2 mph - -   Blowing Sand
2:00 PM 82.4 °F 46.4 °F 28% 29.83 in 3.7 mi North 24.2 mph - N/A   Unknown
3:00 PM 82.4 °F 44.6 °F 26% 29.83 in 3.7 mi North 25.3 mph - N/A   Unknown
4:00 PM 80.6 °F 39.2 °F 23% 29.83 in 3.7 mi North 24.2 mph - N/A   Unknown
5:00 PM 77.0 °F 41.0 °F 28% 29.83 in 3.7 mi North 25.3 mph - N/A   Unknown
6:00 PM 75.2 °F 37.4 °F 25% 29.86 in 3.7 mi North 18.4 mph - N/A   Unknown
7:00 PM 73.4 °F 33.8 °F 23% 29.89 in - NW 17.3 mph - N/A   Clear
8:00 PM 72 °F 32 °F 13% 29.92 in 6 mi NW 15.0 mph - -  
8:00 PM 71.6 °F 32.0 °F 23% 29.92 in - NW 15.0 mph - N/A   Clear
9:00 PM 69.8 °F 33.8 °F 27% 29.92 in - NW 17.3 mph - N/A   Clear
10:00 PM 68.0 °F 32.0 °F 26% 29.95 in - WNW 18.4 mph - N/A   Clear
11:00 PM 66.2 °F 33.8 °F 30% 29.95 in - WNW 19.6 mph - N/A   Clear